VK3GY-13 Weather Reports


Display with metric or nautical units.
time (UTC)temp
F
wind
direction
speed
MPH
gust
MPH
rain 1hr
in
rain 24hr
in
rain mn
in
humidity
%
barometer
mb
20260510231009 48 290 3.0 8.0 0.00 0.00 0.00 91 1033.1
20260510230010 48 281 2.0 7.0 0.00 0.00 0.00 91 1033.1
20260510225009 47 281 2.0 8.0 0.00 0.00 0.00 91 1033.1
20260510224009 46 279 5.0 8.0 0.00 0.00 0.00 91 1033.1
20260510223009 45 263 3.0 6.0 0.00 0.00 0.00 92 1033.0
20260510222010 43 253 2.0 3.0 0.00 0.00 0.00 92 1032.9
20260510221009 42 253 2.0 3.0 0.00 0.00 0.00 92 1032.9
20260510220009 41 253 1.0 2.0 0.00 0.00 0.00 92 1032.9
20260510215009 40 253 1.0 3.0 0.00 0.00 0.00 92 1032.8
20260510214009 40 253 1.0 2.0 0.00 0.00 0.00 92 1032.7
20260510213009 40 253 0.0 1.0 0.00 0.00 0.00 92 1032.6
20260510212009 40 253 0.0 1.0 0.00 0.00 0.00 92 1032.5
20260510211009 40 253 0.0 1.0 0.00 0.00 0.00 91 1032.4
20260510210010 41 253 0.0 1.0 0.00 0.00 0.00 91 1032.2
20260510205009 41 253 0.0 1.0 0.00 0.00 0.00 91 1032.1
20260510204009 41 253 0.0 1.0 0.00 0.00 0.00 91 1032.0
20260510203010 42 253 0.0 1.0 0.00 0.00 0.00 91 1031.9
20260510202009 43 253 0.0 0.0 0.00 0.00 0.00 91 1032.0
20260510201010 43 253 0.0 1.0 0.00 0.00 0.00 91 1031.9
20260510200009 44 253 0.0 2.0 0.00 0.00 0.00 91 1031.9
20260510195009 44 253 0.0 2.0 0.00 0.00 0.00 91 1031.7
20260510194009 45 253 1.0 3.0 0.00 0.00 0.00 91 1031.6
20260510193009 45 253 1.0 3.0 0.00 0.00 0.00 91 1031.5
20260510192009 45 253 2.0 3.0 0.00 0.00 0.00 91 1031.5
20260510191009 44 253 1.0 3.0 0.00 0.00 0.00 91 1031.4
20260510190009 44 253 1.0 2.0 0.00 0.00 0.00 91 1031.3
20260510185009 44 253 1.0 2.0 0.00 0.00 0.00 91 1031.3
20260510184009 45 253 1.0 2.0 0.00 0.00 0.00 91 1031.2
20260510183009 45 253 1.0 3.0 0.00 0.00 0.00 91 1031.1
20260510182009 45 253 1.0 2.0 0.00 0.00 0.00 91 1031.0
20260510181009 45 253 1.0 2.0 0.00 0.00 0.00 91 1030.9
20260510180010 45 253 1.0 3.0 0.00 0.00 0.00 91 1030.8
20260510174009 44 253 1.0 2.0 0.00 0.00 0.00 91 1030.8
20260510173009 44 253 0.0 1.0 0.00 0.00 0.00 91 1030.8
20260510172011 44 253 0.0 2.0 0.00 0.00 0.00 91 1030.8
20260510171009 44 253 0.0 2.0 0.00 0.00 0.00 91 1030.8
20260510170009 44 253 1.0 2.0 0.00 0.00 0.00 91 1030.8
20260510165009 44 253 0.0 1.0 0.00 0.00 0.00 91 1030.8
20260510164009 44 253 0.0 1.0 0.00 0.00 0.00 91 1030.9
20260510163009 45 253 0.0 0.0 0.00 0.00 0.00 91 1031.0
20260510162009 45 253 0.0 0.0 0.00 0.00 0.00 91 1031.0
20260510161009 45 253 0.0 1.0 0.00 0.00 0.00 91 1031.0
20260510160009 46 253 0.0 2.0 0.00 0.00 0.00 91 1031.0
20260510155009 46 253 0.0 0.0 0.00 0.00 0.00 91 1030.9
20260510154009 46 253 0.0 0.0 0.00 0.00 0.00 91 1031.0
20260510153009 47 253 0.0 1.0 0.00 0.00 0.00 91 1030.9
20260510152009 47 253 0.0 2.0 0.00 0.00 0.00 91 1030.9
20260510151009 47 253 1.0 2.0 0.00 0.00 0.00 91 1030.9
20260510150009 47 253 1.0 3.0 0.00 0.00 0.00 91 1030.9
20260510145009 47 253 1.0 2.0 0.00 0.00 0.00 91 1030.9
20260510144009 48 253 1.0 2.0 0.00 0.00 0.00 90 1031.0
20260510143009 48 253 1.0 3.0 0.00 0.00 0.00 91 1031.0
20260510142009 48 253 1.0 2.0 0.00 0.00 0.00 91 1031.1
20260510141009 48 253 0.0 2.0 0.00 0.00 0.00 90 1031.1
20260510140009 48 253 1.0 2.0 0.00 0.00 0.00 90 1031.2
20260510135009 48 253 1.0 2.0 0.00 0.00 0.00 90 1031.2
20260510134010 48 253 0.0 2.0 0.00 0.00 0.00 90 1031.2
20260510133009 49 253 1.0 2.0 0.00 0.00 0.00 90 1031.2
20260510132009 49 253 0.0 2.0 0.00 0.00 0.00 90 1031.2
20260510131009 49 253 0.0 0.0 0.00 0.00 0.00 90 1031.2
20260510130009 49 253 0.0 3.0 0.00 0.00 0.00 90 1031.3
20260510125009 49 253 0.0 2.0 0.00 0.00 0.00 90 1031.3
20260510124009 50 253 0.0 1.0 0.00 0.00 0.00 90 1031.3
20260510123009 50 253 0.0 1.0 0.00 0.00 0.00 90 1031.3
20260510122011 50 253 1.0 2.0 0.00 0.00 0.00 90 1031.4
20260510121009 51 253 0.0 2.0 0.00 0.00 0.00 90 1031.4
20260510120009 51 253 0.0 1.0 0.00 0.00 0.00 90 1031.3
20260510115009 51 253 0.0 1.0 0.00 0.01 0.00 89 1031.3
20260510114009 52 253 0.0 1.0 0.00 0.02 0.00 89 1031.3
20260510113009 52 253 0.0 2.0 0.00 0.02 0.00 89 1031.2
20260510112009 52 253 0.0 1.0 0.00 0.02 0.00 89 1031.2
20260510111009 53 253 0.0 2.0 0.00 0.02 0.00 89 1031.1
20260510110009 53 253 1.0 3.0 0.00 0.02 0.00 89 1031.0
20260510105009 53 253 0.0 2.0 0.00 0.02 0.00 89 1031.0
20260510104009 53 253 1.0 3.0 0.00 0.02 0.00 89 1030.9
20260510103009 53 253 0.0 2.0 0.00 0.02 0.00 88 1030.9
20260510102009 53 253 0.0 2.0 0.00 0.02 0.00 88 1030.9
20260510101009 53 253 0.0 1.0 0.00 0.02 0.00 88 1030.9
20260510100009 53 253 1.0 3.0 0.00 0.02 0.00 88 1030.8
20260510095009 53 253 1.0 2.0 0.00 0.02 0.00 87 1030.8
20260510094009 53 253 1.0 2.0 0.00 0.02 0.00 86 1030.8
20260510093009 53 253 0.0 1.0 0.00 0.02 0.00 86 1030.7
20260510092011 54 253 0.0 0.0 0.00 0.02 0.00 85 1030.7
20260510091009 54 253 0.0 0.0 0.00 0.02 0.00 85 1030.5
20260510090010 55 253 0.0 1.0 0.00 0.02 0.00 85 1030.4
20260510085009 55 253 0.0 2.0 0.00 0.02 0.00 84 1030.4
20260510084009 55 253 1.0 3.0 0.00 0.02 0.00 83 1030.3
20260510083010 56 253 1.0 3.0 0.00 0.02 0.00 81 1030.1
20260510082009 56 253 1.0 2.0 0.00 0.02 0.00 80 1030.0
20260510081009 57 253 1.0 1.0 0.00 0.02 0.00 79 1029.9
20260510080010 58 253 0.0 1.0 0.00 0.02 0.00 78 1029.9
20260510075009 58 253 0.0 1.0 0.00 0.02 0.00 77 1029.8
20260510074009 59 253 0.0 2.0 0.00 0.02 0.00 76 1029.7
20260510073008 59 253 0.0 3.0 0.00 0.02 0.00 76 1029.7
20260510072008 59 253 1.0 2.0 0.00 0.02 0.00 75 1029.6
20260510071009 60 253 0.0 3.0 0.00 0.02 0.00 74 1029.5
20260510070009 60 253 2.0 3.0 0.00 0.02 0.00 73 1029.4
20260510065009 61 253 1.0 3.0 0.00 0.02 0.00 72 1029.4
20260510064009 61 253 1.0 3.0 0.00 0.02 0.00 71 1029.4
20260510063009 62 253 1.0 3.0 0.00 0.02 0.00 69 1029.3
20260510062009 62 253 2.0 3.0 0.00 0.02 0.00 68 1029.3
20260510061009 63 253 1.0 3.0 0.00 0.02 0.00 67 1029.2
20260510060009 63 253 2.0 5.0 0.00 0.02 0.00 67 1029.2
20260510055009 64 253 3.0 5.0 0.00 0.02 0.00 66 1029.1
20260510054009 64 253 2.0 5.0 0.00 0.02 0.00 65 1029.1
20260510053009 65 253 1.0 5.0 0.00 0.02 0.00 65 1029.2
20260510052009 66 253 2.0 5.0 0.00 0.02 0.00 63 1029.1
20260510051009 67 254 2.0 7.0 0.00 0.02 0.00 60 1029.1
20260510050009 69 254 1.0 8.0 0.00 0.02 0.00 60 1029.0
20260510045009 68 257 3.0 6.0 0.00 0.02 0.00 64 1028.9
20260510044008 66 264 2.0 8.0 0.00 0.02 0.00 65 1028.9
20260510043009 65 271 3.0 8.0 0.00 0.02 0.00 65 1028.9
20260510042009 65 270 2.0 6.0 0.00 0.02 0.00 67 1029.0
20260510041009 64 270 2.0 6.0 0.00 0.02 0.00 65 1029.1
20260510040009 65 271 2.0 3.0 0.00 0.02 0.00 63 1029.1
20260510035009 66 271 2.0 3.0 0.00 0.02 0.00 64 1029.2
20260510034009 67 271 1.0 3.0 0.00 0.02 0.00 65 1029.1
20260510033009 66 271 1.0 3.0 0.00 0.02 0.00 67 1029.2
20260510032009 65 202 2.0 3.0 0.00 0.02 0.00 67 1029.1
20260510031009 65 202 2.0 3.0 0.00 0.02 0.00 67 1029.1
20260510030009 64 202 2.0 3.0 0.00 0.02 0.00 70 1029.3
20260510025009 63 202 2.0 3.0 0.00 0.02 0.00 70 1029.4
20260510024009 63 202 2.0 3.0 0.00 0.02 0.00 70 1029.5
20260510023009 62 202 2.0 3.0 0.00 0.02 0.00 71 1029.6
20260510022009 61 202 1.0 3.0 0.00 0.02 0.00 70 1029.7
20260510021008 61 202 1.0 3.0 0.00 0.02 0.00 71 1029.9
20260510020009 61 202 2.0 3.0 0.00 0.02 0.00 71 1030.1
20260510015008 61 202 3.0 6.0 0.00 0.02 0.00 72 1030.3
20260510014009 61 202 2.0 3.0 0.00 0.02 0.00 71 1030.3
20260510013009 61 202 2.0 5.0 0.00 0.02 0.00 71 1030.4
20260510012009 61 202 1.0 5.0 0.00 0.02 0.00 72 1030.4
20260510011009 61 202 2.0 3.0 0.00 0.02 0.00 73 1030.4
20260510010008 61 202 1.0 3.0 0.00 0.02 0.00 75 1030.4
20260510005009 61 202 2.0 5.0 0.00 0.02 0.00 77 1030.3
20260510004009 60 202 2.0 3.0 0.00 0.02 0.00 81 1030.3
20260510003009 59 202 2.0 3.0 0.00 0.02 0.00 86 1030.3
20260510002009 58 202 1.0 3.0 0.00 0.02 0.00 89 1030.3
20260510001009 58 202 1.0 3.0 0.00 0.02 0.00 90 1030.3
20260510000009 57 202 1.0 3.0 0.00 0.02 0.00 91 1030.4
20260509235009 57 202 2.0 3.0 0.00 0.02 0.00 91 1030.4
20260509234009 56 202 0.0 3.0 0.00 0.02 0.00 91 1030.3
20260509233009 56 202 1.0 3.0 0.00 0.02 0.00 91 1030.3
20260509232009 56 202 1.0 3.0 0.00 0.02 0.00 91 1030.3